Location: Lombard
(41.8800°N, 88.0080°W)
Time: 23:22:16
(UTC-05:00)

A-11 Canister half - Pass Details

Date: 07 February 2023
Orbit: 1512 x 1687 km, 47.2° (Epoch: 20 March)

Event Time Altitude Azimuth Distance (km) Brightness Sun altitude
Rises 10:45:23 0° 250° (WSW) 4,867 11.6 29.9°
Reaches altitude 10° 10:48:34 10° 251° (WSW) 3,860 11.2 30.1°
Maximum altitude 10:58:26 80° 339° (NNW) 1,611 9.5 30.8°
Drops below altitude 10° 11:07:56 10° 67° (ENE) 3,729 11.1 31.3°
Sets 11:10:57 0° 69° (ENE) 4,696 11.5 31.5°
